GFSGBSN_sfc_temp_132.txt.gz
Temp
60 61 61 61 61 60 60 60 60 60 60 60 60 60 60 60 61 61 61 61 61 60 61 62 61 62 57 62 74 78 80 78 78 80 79 77 74 71 67 70 74 68 74 76 77 77 76
60 60 61 61 60 60 60 60 60 60 60 60 59 59 59 60 60 60 60 60 60 60 61 61 62 62 59 65 81 79 77 79 78 78 75 78 78 77 71 71 69 74 73 75 75 78 78
60 59 59 60 60 60 60 60 60 59 59 59 59 59 59 59 59 60 60 59 59 60 62 62 63 64 64 76 83 78 78 74 77 76 76 79 80 75 73 71 76 73 71 73 73 75 75
59 59 59 60 60 59 59 59 59 59 59 59 58 59 59 59 59 59 59 58 59 61 62 63 63 59 67 81 78 81 75 75 77 73 77 80 80 74 71 75 73 68 64 61 71 76 74
59 59 59 59 59 59 59 59 59 58 58 58 58 58 58 58 58 58 57 58 61 63 64 64 57 58 69 78 78 79 79 80 80 78 77 91 78 69 72 65 61 61 57 59 69 75 74
59 59 59 59 59 59 58 58 58 58 58 58 58 57 57 57 57 57 57 59 63 62 63 67 70 63 73 77 80 82 79 83 81 78 77 75 68 64 62 61 55 57 57 58 62 70 71
59 59 59 59 59 59 58 58 58 58 58 57 57 57 57 57 57 57 54 56 62 62 60 69 68 72 78 84 86 81 83 81 79 76 65 68 64 60 66 65 66 64 61 60 66 71 68
59 59 59 59 59 58 58 58 57 57 57 57 57 57 57 57 56 56 52 63 68 67 62 72 73 74 79 80 75 80 86 75 71 66 67 65 60 69 71 70 66 64 60 60 66 72 68
59 59 58 58 58 58 58 57 57 57 57 57 57 57 56 56 55 55 59 67 69 65 59 70 72 73 76 79 76 79 82 77 70 66 66 62 68 75 73 68 66 59 58 61 64 66 67
59 59 58 58 58 58 58 57 57 57 57 57 57 56 56 54 58 54 65 67 66 67 55 64 67 77 78 78 74 85 84 80 70 70 67 65 72 73 69 68 68 54 70 69 66 61 55
59 59 58 58 58 58 57 57 57 57 57 56 56 56 55 54 47 59 68 62 65 71 46 71 69 81 74 77 76 78 83 77 71 70 67 67 67 67 67 70 71 66 69 65 64 57 54
59 58 58 58 58 57 57 56 56 56 56 56 56 56 55 50 45 55 61 62 70 57 48 67 74 71 71 70 74 76 77 79 77 70 67 69 73 72 74 73 72 71 66 60 54 51 48
59 58 58 58 57 57 57 56 56 56 56 56 55 54 52 55 60 56 60 68 54 48 67 65 65 66 63 66 69 72 70 67 64 57 55 65 66 71 75 68 67 65 56 47 47 45 47
59 58 58 57 57 57 56 56 56 56 56 55 54 53 51 53 50 57 64 61 45 60 62 69 67 63 65 67 68 69 66 62 64 62 55 57 57 68 72 69 65 57 57 49 42 42 47
58 59 57 57 57 56 56 56 56 56 55 54 52 45 46 50 55 54 62 49 53 58 67 68 64 61 59 66 68 65 63 62 67 66 59 54 57 70 72 71 70 59 54 56 47 41 44
58 57 57 57 56 56 56 56 56 55 55 54 42 42 51 58 56 59 57 49 55 64 68 65 59 62 58 63 63 61 62 69 69 70 65 60 54 62 72 71 68 64 63 54 48 41 39
57 57 57 56 56 56 56 56 55 55 54 52 42 51 62 58 57 58 50 50 59 68 68 63 59 59 60 63 63 58 63 68 71 66 68 59 57 60 64 60 61 60 55 50 50 46 43
57 57 57 56 56 56 56 55 55 54 53 47 39 51 61 62 55 44 49 55 61 64 65 65 64 63 62 63 60 60 63 68 71 68 65 60 56 52 60 63 65 60 57 53 48 46 42
57 57 57 56 56 56 56 55 55 54 53 44 37 39 56 62 49 47 50 59 63 62 63 62 63 67 64 62 57 62 65 70 71 68 64 63 51 47 53 58 60 58 57 51 48 46 43
57 57 57 56 56 56 56 56 55 54 54 43 41 45 52 52 47 48 49 54 57 67 65 65 64 64 60 57 57 59 61 69 70 66 66 63 49 53 55 54 57 56 58 56 52 46 45
57 57 56 56 56 56 56 56 55 54 53 43 42 43 44 44 48 45 45 52 54 56 62 60 57 60 60 51 52 54 58 61 67 66 60 61 53 50 51 58 59 59 60 59 54 51 52
57 57 56 56 56 56 56 56 55 54 52 43 40 40 43 42 43 45 45 45 52 56 54 58 56 59 58 56 58 58 58 54 57 60 54 55 50 49 48 57 59 58 60 61 58 56 54
57 56 56 56 56 56 56 56 55 53 49 39 40 41 41 44 43 44 44 49 54 53 60 61 60 57 58 59 61 57 57 57 55 57 54 53 50 48 45 52 54 50 57 58 58 59 59
57 56 56 56 56 56 56 56 55 54 49 41 39 38 39 41 43 45 51 53 54 54 51 61 60 55 59 64 62 59 59 58 60 53 53 50 47 45 43 45 39 54 59 63 62 62 60
56 56 55 56 56 56 56 56 56 55 53 43 43 40 39 36 41 47 49 49 50 50 52 56 61 58 56 57 54 51 50 52 55 54 51 51 47 42 44 41 48 56 60 60 58 57 63
55 55 55 55 56 56 56 56 56 55 53 44 42 45 40 38 40 48 45 47 43 43 50 54 58 56 56 50 50 43 44 48 48 50 48 50 49 49 41 42 42 52 62 65 62 49 63
55 55 55 55 55 56 56 56 56 56 54 45 43 44 43 39 43 42 43 43 45 43 42 46 51 51 51 46 44 43 45 49 47 47 45 45 43 44 41 42 47 56 60 62 49 52 60
55 55 55 55 55 55 56 56 56 56 56 46 42 45 45 41 42 48 50 45 46 44 42 47 48 48 47 44 44 43 44 47 45 47 45 48 43 41 40 39 42 59 59 53 54 54 59
54 54 55 55 55 55 56 56 56 56 55 49 39 47 49 42 45 49 54 56 55 54 47 44 45 44 46 43 42 42 44 43 41 43 47 47 48 46 47 45 54 56 57 59 56 56 59

GFSGBSN_sfc_temp_135.txt.gz
Temp
60 60 61 61 60 60 60 60 60 60 60 60 60 60 60 60 60 61 61 61 60 60 61 62 61 62 66 78 83 83 80 80 86 89 90 88 86 85 82 84 85 83 85 87 88 88 88
60 60 60 61 60 60 60 60 60 60 60 60 59 59 59 60 60 60 60 60 60 60 61 62 62 62 73 78 87 85 85 87 90 90 88 89 88 89 85 84 84 85 86 87 88 88 87
60 59 59 60 60 60 60 60 60 59 59 59 59 59 59 59 59 59 59 59 59 60 61 62 62 67 76 84 88 88 90 88 89 91 88 89 91 89 86 84 87 85 83 88 87 89 87
59 59 60 60 60 59 59 59 59 59 59 59 59 59 59 59 59 59 58 58 60 60 62 63 63 68 80 86 88 87 89 87 88 90 91 91 92 88 86 87 84 82 82 80 86 89 85
59 60 60 60 60 59 59 59 59 59 58 58 58 58 58 58 58 58 57 58 62 63 64 64 68 73 81 82 85 90 91 88 88 88 91 93 91 84 85 82 80 79 77 76 81 86 86
60 60 60 60 59 59 59 59 58 58 58 58 58 58 58 57 57 57 57 58 63 64 67 69 73 74 82 85 88 88 90 90 88 88 87 86 85 83 80 81 73 74 75 76 76 84 84
59 59 59 59 59 59 59 58 58 58 58 58 58 57 57 57 57 57 59 68 74 73 71 80 82 80 84 90 93 89 91 89 90 87 80 80 80 77 81 80 78 77 74 73 78 83 83
59 59 59 59 59 58 58 58 58 58 58 58 57 57 57 57 56 56 60 75 79 78 74 79 78 80 85 88 85 87 93 86 84 79 80 79 76 81 80 78 77 75 73 75 78 80 82
59 59 59 59 58 58 58 58 57 57 57 57 57 57 56 56 55 61 68 76 78 79 74 78 79 81 86 89 85 86 91 85 81 77 78 76 79 80 79 77 75 76 77 75 77 77 78
59 59 58 58 58 58 58 57 57 57 57 57 57 56 56 54 62 62 73 77 77 78 70 74 77 84 85 87 84 91 94 89 82 79 77 78 82 79 77 77 81 77 80 80 78 77 73
59 59 58 58 58 58 57 57 57 57 57 56 56 56 55 54 57 68 76 74 77 79 57 77 78 89 85 87 86 84 91 89 81 79 78 78 79 77 77 81 83 78 80 78 76 75 74
59 59 59 58 58 57 57 57 57 56 56 56 56 56 55 55 55 66 69 73 80 68 56 73 80 79 80 84 84 85 86 91 86 80 79 80 84 83 84 80 82 79 78 75 73 75 68
59 59 59 58 57 57 57 56 56 56 56 56 55 54 53 59 71 66 70 79 67 58 75 73 75 79 81 78 80 81 79 78 77 70 72 77 80 83 85 80 80 79 78 69 66 66 65
58 58 58 57 57 57 56 56 56 56 56 55 54 53 55 57 62 64 75 74 56 67 69 78 76 77 75 78 80 78 76 75 77 77 73 72 69 80 84 83 80 77 78 70 57 62 66
58 58 57 57 56 56 56 56 56 55 55 54 53 58 59 63 62 63 74 63 64 67 74 74 75 73 73 77 78 77 77 77 80 79 74 70 72 80 81 82 83 73 73 75 66 60 64
58 58 57 57 56 56 56 56 56 55 55 53 50 54 64 67 65 71 71 60 67 71 74 75 70 74 70 74 75 75 73 79 79 81 84 75 70 77 77 82 78 79 76 70 70 57 56
58 57 57 56 56 56 56 56 55 55 54 52 55 63 69 66 68 70 65 66 68 75 75 73 71 71 73 72 77 74 75 79 82 78 82 79 74 73 77 76 76 73 73 68 72 68 64
58 58 57 56 56 56 56 55 55 54 53 51 53 63 69 68 66 61 64 66 62 74 77 76 75 75 73 73 72 75 76 78 81 81 76 80 79 71 74 76 77 77 76 76 70 61 64
58 57 57 56 56 56 56 55 55 54 53 49 52 54 69 70 62 62 64 67 71 73 74 75 74 76 76 74 69 74 74 78 79 80 76 76 73 68 68 74 74 74 71 71 69 69 61
57 57 57 56 56 56 56 55 55 54 53 49 53 57 65 66 61 62 64 66 68 73 73 74 74 75 74 72 71 71 74 76 77 77 67 75 70 72 69 72 77 69 69 70 75 68 68
57 57 57 56 56 56 56 56 55 55 53 51 53 54 53 59 60 59 60 63 66 67 71 71 71 73 74 69 69 71 73 75 76 69 72 77 69 68 68 71 73 74 71 69 70 71 68
57 57 57 57 56 56 56 56 55 54 52 53 50 51 55 55 53 56 55 60 63 65 66 68 67 72 73 70 75 71 74 73 75 74 73 70 65 67 66 68 71 70 71 72 71 68 68
57 57 57 57 56 56 56 56 55 53 52 50 51 51 51 51 55 57 59 59 62 62 68 69 68 69 69 69 72 73 74 74 75 74 69 69 66 66 63 65 67 63 69 71 71 72 74
56 56 56 56 56 56 56 56 55 54 51 51 50 49 49 54 55 56 56 57 60 60 61 66 68 68 66 70 73 77 76 73 72 67 72 64 63 65 62 62 55 69 70 74 73 73 73
56 56 56 55 56 56 56 56 56 55 52 52 51 49 48 50 52 55 56 56 60 60 60 62 67 66 66 70 70 66 68 68 66 65 66 68 67 59 60 61 63 67 69 69 69 71 76
55 55 55 55 55 56 56 56 56 55 53 53 52 52 49 48 53 53 54 54 56 58 62 63 67 67 68 69 66 58 58 63 62 64 66 66 65 69 58 58 55 68 67 71 73 63 69
55 55 55 55 55 55 56 56 56 56 53 53 53 52 50 47 54 53 54 55 57 56 57 58 60 63 65 66 63 61 62 63 60 60 60 62 62 62 60 60 63 67 68 70 60 64 69
54 55 55 55 55 55 55 56 56 56 55 53 53 53 51 49 52 54 56 55 57 57 56 57 60 62 64 62 62 61 62 62 62 62 61 62 60 60 57 56 54 68 68 64 65 67 68
54 54 54 55 55 55 56 56 56 55 55 52 51 54 55 49 53 55 58 60 61 61 58 58 56 55 60 61 59 60 59 59 58 58 61 60 64 64 63 64 65 68 67 69 67 66 69

GFSGBSN_sfc_temp_138.txt.gz
Temp
61 60 61 61 61 60 60 60 60 60 60 60 60 60 60 60 61 61 61 61 61 60 61 62 63 63 73 86 92 95 80 81 96 100 100 99 96 95 92 94 95 93 95 97 99 97 98
60 61 61 61 61 60 60 60 60 60 60 60 60 60 60 60 60 60 60 60 60 60 61 62 63 63 83 85 96 95 97 96 100 101 100 100 97 98 95 93 94 95 95 96 98 97 97
61 61 61 61 60 60 60 60 60 60 60 59 59 59 59 59 60 60 60 59 59 61 61 63 63 75 85 89 98 100 100 100 102 103 98 100 101 97 97 93 96 95 92 96 97 98 95
60 60 60 60 60 60 60 60 60 59 59 59 59 59 59 59 59 59 59 58 60 62 63 64 64 81 90 96 102 97 101 98 101 103 103 102 101 98 97 96 95 92 92 88 94 97 95
60 60 60 60 60 60 59 59 59 59 59 59 58 58 58 58 58 58 57 58 62 64 64 65 78 84 90 84 92 101 103 97 99 100 100 99 100 97 95 92 89 90 85 85 88 97 94
59 60 60 60 60 59 59 59 59 59 58 58 58 58 58 58 58 57 57 58 63 65 72 79 84 83 90 91 96 99 101 101 97 97 94 95 96 92 93 90 80 83 83 86 86 92 94
59 60 60 60 60 59 59 59 58 58 58 58 58 58 57 57 57 57 63 80 81 80 83 90 91 89 92 98 101 97 100 97 99 95 88 92 88 85 90 92 90 87 85 83 90 93 91
59 59 59 59 59 59 58 58 58 58 58 58 58 57 57 57 57 56 70 87 87 87 83 93 92 90 95 100 91 95 102 93 91 86 91 86 83 92 91 90 88 86 84 84 87 91 91
59 59 59 59 59 58 58 58 58 58 57 57 57 57 57 56 55 65 83 86 92 92 84 89 91 93 94 97 93 92 97 95 90 87 87 86 89 92 88 87 85 87 86 85 85 87 92
59 59 59 59 58 58 58 58 57 57 57 57 57 57 56 54 64 81 86 89 92 91 79 84 86 92 94 98 90 101 102 96 90 86 88 88 92 87 87 87 90 84 89 88 86 85 79
59 59 59 59 58 58 57 57 57 57 57 57 57 56 56 55 71 81 87 91 93 90 65 87 87 101 99 92 94 92 102 96 88 87 87 85 87 86 85 89 92 86 91 88 87 85 83
59 59 59 58 58 57 57 57 57 57 56 56 56 56 55 68 72 82 88 90 90 75 63 79 88 86 87 92 92 93 92 99 96 89 90 89 93 92 92 91 93 91 87 86 86 86 74
59 59 58 58 57 57 57 57 57 56 56 56 55 54 56 71 85 84 87 87 74 67 83 79 82 88 88 86 88 88 86 84 83 76 78 86 88 92 93 87 90 90 86 74 71 73 74
59 58 58 57 57 57 56 56 56 56 56 55 54 53 63 72 83 81 85 79 64 76 80 86 86 87 83 88 87 87 84 82 88 88 84 79 75 87 93 91 85 86 87 77 62 69 74
59 59 58 57 57 56 56 56 56 56 55 54 53 79 76 81 78 79 81 69 72 78 83 82 84 81 82 87 87 85 84 84 88 88 81 80 80 92 92 93 92 84 79 89 77 79 74
59 59 58 57 57 56 56 56 56 56 55 54 63 72 81 83 80 80 77 66 79 85 84 83 77 83 78 82 81 83 82 89 87 91 94 86 77 89 86 91 88 88 93 78 80 65 63
58 58 58 57 57 56 56 56 55 55 54 54 65 73 79 81 82 79 71 76 82 87 85 81 81 81 83 82 83 83 83 88 92 90 93 90 84 81 85 83 84 82 82 84 86 79 70
58 58 57 57 57 56 56 56 55 54 53 59 67 70 80 81 73 78 75 81 70 83 87 84 83 83 83 86 83 84 83 87 94 94 85 91 86 77 81 86 88 91 86 86 76 70 77
57 58 57 57 57 56 56 56 55 54 53 60 64 71 82 79 70 74 79 81 80 82 84 84 82 84 86 83 78 85 86 93 92 91 88 90 82 74 75 82 84 82 86 87 86 83 73
57 57 57 57 57 56 56 56 55 54 54 58 62 67 75 76 78 73 76 75 75 83 83 84 83 85 82 81 84 82 86 85 90 92 73 84 86 78 75 78 86 79 83 85 84 76 77
57 57 57 57 57 56 56 56 55 55 54 58 67 68 64 70 72 74 73 75 75 76 81 82 80 81 82 78 81 81 87 83 85 72 84 88 77 82 85 86 86 85 83 84 80 82 77
57 57 57 57 57 56 56 56 56 54 53 62 60 61 70 66 66 67 62 72 74 78 77 77 76 83 83 79 82 80 84 84 81 82 83 88 77 80 79 81 83 80 84 85 83 84 83
57 57 57 57 57 56 56 56 56 54 53 63 67 66 61 61 67 67 72 72 74 74 78 79 78 78 79 83 81 86 91 90 89 83 81 81 78 74 73 78 77 72 80 82 83 85 83
56 56 56 56 56 56 56 56 56 54 52 61 63 60 60 63 66 69 67 68 72 72 71 77 78 76 75 81 83 89 89 87 86 83 88 77 75 78 75 73 61 79 85 87 83 83 84
56 56 56 56 56 56 56 56 56 55 54 60 63 59 61 60 67 65 66 68 70 70 69 72 75 75 78 79 78 73 75 76 76 80 81 84 79 75 70 70 76 75 75 78 77 77 84
56 56 56 56 56 56 56 56 56 55 54 57 61 63 59 58 65 61 63 65 70 71 70 73 76 79 79 80 77 65 67 72 70 71 80 79 77 77 72 65 63 78 78 81 81 70 78
55 55 56 56 56 56 56 56 56 56 54 56 62 62 59 57 68 62 64 65 67 68 72 71 71 74 78 76 72 71 73 77 70 68 68 72 73 70 71 67 74 77 78 81 66 69 77
55 55 55 55 56 56 56 56 57 56 56 57 62 63 58 59 64 64 64 62 66 68 67 67 70 72 75 70 73 74 72 74 73 75 72 71 68 70 71 66 62 79 76 71 74 76 77
54 54 54 55 55 56 56 56 57 56 56 53 59 65 65 56 63 66 66 68 65 66 65 70 65 65 71 73 74 77 72 72 72 65 71 68 74 74 72 73 73 78 75 76 78 76 76

GFSGBSN_sfc_temp_141.txt.gz
Temp
62 62 62 61 61 61 61 61 61 61 61 61 61 61 61 61 61 61 61 61 61 61 61 62 64 64 72 88 95 98 81 83 97 99 103 103 100 101 97 99 100 98 99 101 104 102 103
61 62 61 61 61 61 61 61 61 61 60 60 60 60 60 60 60 60 60 60 60 60 61 62 64 65 83 87 105 101 102 100 103 103 104 106 103 105 101 99 99 100 99 100 104 101 101
61 61 61 61 61 61 60 60 60 60 60 60 59 59 59 59 60 60 60 59 60 61 62 63 64 77 90 95 107 107 106 104 108 107 104 108 107 102 103 98 102 101 96 99 101 101 98
60 61 61 61 61 60 60 60 60 60 60 59 59 59 59 59 59 59 59 59 59 64 63 65 65 85 92 105 110 105 108 106 109 111 109 109 108 104 102 104 100 97 98 90 98 100 100
61 61 60 61 60 60 60 60 59 59 59 59 59 59 59 59 59 58 58 58 60 65 66 66 79 89 93 91 99 107 109 103 105 107 109 106 106 101 102 94 92 95 87 89 91 101 98
60 61 60 60 60 60 59 59 59 59 59 59 58 58 58 58 58 57 57 58 64 66 71 86 91 88 95 94 103 105 110 108 101 102 99 98 99 95 96 93 83 87 89 91 89 96 97
60 60 60 60 60 59 59 59 59 59 58 58 58 58 58 57 57 57 64 84 83 82 90 94 96 96 98 106 107 102 106 103 103 98 90 95 91 87 93 96 96 94 91 89 93 98 94
60 60 60 60 59 59 59 58 58 58 58 58 58 57 57 57 57 56 67 90 95 95 87 99 99 101 102 104 94 99 106 96 94 88 95 91 87 96 99 98 94 92 88 88 94 97 95
60 60 60 60 59 59 58 58 58 58 58 58 57 57 57 56 56 67 91 94 103 101 88 96 100 98 99 103 97 97 102 99 93 90 92 89 94 99 95 92 90 91 89 89 89 93 96
60 59 59 59 59 58 58 58 58 58 57 57 57 57 56 55 64 91 92 99 102 102 81 88 92 97 102 100 94 105 105 100 95 90 93 92 98 93 91 90 93 87 95 92 90 88 81
60 59 59 59 58 58 58 57 57 57 57 57 57 57 56 54 73 88 95 101 102 97 66 94 95 110 104 95 99 98 106 101 92 92 94 89 92 90 88 91 96 90 97 93 91 88 88
60 59 59 59 58 58 57 57 57 57 57 57 56 56 56 77 77 88 97 99 96 76 66 86 94 93 93 95 98 100 98 103 102 94 95 95 101 97 95 98 97 97 91 90 91 89 78
59 59 59 59 58 58 57 57 57 56 56 56 56 55 57 73 88 97 98 92 74 69 90 86 87 93 92 89 93 94 90 88 86 80 82 90 91 97 99 93 97 93 88 76 73 75 75
59 59 59 59 58 57 57 57 56 56 56 55 55 54 67 75 91 91 89 81 65 80 84 92 93 92 87 92 92 90 88 85 92 91 87 81 78 91 97 93 88 89 89 79 67 72 76
59 59 59 59 58 57 57 57 56 56 55 55 53 84 87 89 87 90 83 70 72 82 90 89 90 86 86 91 91 89 88 87 91 94 83 83 83 97 97 98 97 88 83 94 83 84 79
58 59 59 58 58 57 57 56 56 56 55 55 64 78 86 96 91 85 77 68 81 91 93 91 82 87 82 87 87 88 87 93 91 96 99 91 81 94 95 99 98 93 96 82 83 68 68
58 58 58 58 57 57 57 56 56 55 54 54 67 78 90 95 90 80 72 77 83 94 93 87 85 86 87 87 89 88 87 93 96 96 98 96 89 87 92 87 87 88 86 88 90 85 75
58 58 58 57 57 57 57 56 55 54 53 61 73 73 89 92 74 80 76 82 77 90 94 89 89 88 88 90 88 87 87 91 99 99 89 95 90 82 85 94 97 95 89 88 79 74 81
58 58 57 57 57 57 57 56 55 54 53 62 67 77 92 88 71 77 82 84 88 88 89 88 85 89 91 87 82 89 90 99 99 96 92 94 86 78 80 89 93 88 91 92 90 87 78
58 57 57 57 57 57 57 56 55 55 54 60 68 70 81 81 82 79 79 80 81 91 88 90 89 91 88 85 90 86 89 96 99 97 79 89 88 80 78 81 88 82 87 89 88 80 80
57 57 57 57 57 57 57 56 56 55 54 59 70 71 77 74 76 78 81 82 80 81 86 89 86 86 85 80 84 85 91 93 95 77 92 93 80 85 87 90 91 88 86 88 85 85 79
57 57 57 57 57 57 57 56 56 55 53 62 66 69 75 72 74 74 71 77 79 83 85 81 81 86 86 82 85 83 89 89 86 92 90 93 80 84 83 89 89 85 89 89 88 88 87
57 57 57 57 57 57 57 57 56 55 53 66 74 73 68 65 74 72 74 76 79 84 88 90 87 85 84 88 93 95 97 98 94 88 85 86 84 79 74 85 85 77 84 87 88 90 89
56 56 57 57 57 57 57 57 56 55 54 64 68 66 63 63 72 74 77 79 80 82 80 85 86 83 86 91 92 95 96 95 94 93 94 83 80 82 77 80 67 84 93 91 89 89 91
56 56 56 56 57 57 57 57 56 56 55 61 68 65 64 62 71 74 73 74 78 79 77 79 84 86 88 86 82 77 81 82 85 89 89 92 83 78 73 74 80 83 83 85 84 83 91
56 56 56 57 57 57 57 57 56 56 55 59 68 69 63 61 68 71 70 73 73 74 76 80 85 87 86 84 79 68 69 75 74 78 88 89 85 80 77 70 66 82 88 92 89 75 88
55 55 55 56 56 57 57 57 57 57 56 57 62 68 62 60 70 69 69 68 77 75 77 80 81 80 86 79 76 75 75 82 73 72 73 76 77 73 74 72 78 86 86 90 70 74 85
55 55 55 55 55 56 57 57 57 57 57 58 60 68 61 61 68 71 72 67 71 73 71 73 76 78 80 73 77 79 78 80 79 81 77 74 72 73 75 70 67 86 84 77 78 82 84
54 54 55 55 55 55 56 57 57 57 57 56 58 67 68 59 64 70 73 75 73 71 69 73 72 74 77 78 80 82 79 80 77 72 81 73 80 77 75 77 81 87 81 83 86 82 82

GFSGBSN_sfc_temp_147.txt.gz
Temp
62 62 62 61 61 61 61 61 61 60 60 60 60 60 60 60 61 61 61 61 60 60 61 62 63 64 62 68 79 90 82 81 88 90 90 89 86 85 81 86 91 88 90 92 90 96 92
61 62 61 61 61 61 61 61 61 60 60 60 60 60 60 60 60 60 60 60 60 60 61 63 63 64 64 70 98 92 90 87 92 89 89 91 89 92 88 89 85 91 93 91 89 95 93
61 61 61 61 61 60 60 60 60 60 60 60 59 59 59 59 60 60 60 60 60 60 61 64 64 70 75 78 97 93 91 86 90 90 89 95 96 89 89 86 95 90 80 87 88 89 87
61 61 61 61 61 60 60 60 60 60 59 59 59 59 59 59 59 59 59 59 59 60 62 65 65 69 69 98 97 97 93 90 93 93 94 97 97 91 87 92 89 83 77 69 85 89 84
61 61 61 61 61 60 60 60 59 59 59 59 59 59 59 59 59 58 58 58 60 62 64 66 61 62 74 92 93 96 96 92 93 94 93 104 95 85 87 78 72 76 68 75 80 89 82
61 60 60 61 60 60 59 59 59 59 59 58 58 58 58 58 58 58 57 59 66 63 65 76 79 69 80 88 95 98 97 99 93 91 91 88 82 75 75 69 61 69 74 75 76 84 85
60 60 60 60 60 59 59 59 59 59 58 58 58 58 58 58 57 57 56 64 66 66 73 73 77 80 93 96 101 94 98 95 92 85 74 81 70 66 74 80 83 83 82 80 82 88 81
60 60 60 60 59 59 59 59 58 58 58 58 58 58 57 57 57 57 54 63 80 84 73 83 84 87 94 97 90 93 98 85 83 73 79 74 68 80 87 87 85 83 78 78 85 87 79
60 60 60 59 59 59 59 59 58 58 58 58 57 57 57 57 56 58 69 77 89 87 71 82 89 88 89 94 89 88 92 88 81 76 77 71 77 88 87 84 82 78 73 75 77 83 81
60 60 60 59 59 59 59 58 58 58 58 57 57 57 56 55 61 66 73 87 93 90 62 74 81 87 93 93 86 99 97 89 83 77 79 77 87 86 84 83 84 67 86 86 83 74 64
60 59 59 59 59 59 59 58 58 58 57 57 57 57 56 55 54 61 79 85 88 82 48 83 83 99 94 87 89 91 99 89 80 81 78 75 81 82 82 84 85 78 86 83 83 73 68
59 59 59 59 59 59 58 58 57 57 57 57 57 56 56 60 58 65 75 80 77 59 52 78 88 85 84 87 89 92 90 91 91 83 82 82 91 88 85 90 87 90 82 80 74 67 57
59 59 59 59 58 58 58 57 57 57 57 57 56 55 54 61 60 79 75 73 55 52 78 75 80 84 82 80 83 86 82 78 73 66 68 79 83 88 92 80 85 81 66 56 54 54 54
59 59 59 58 58 57 57 57 57 57 56 56 55 54 57 65 62 64 67 61 49 68 69 83 84 83 77 82 81 84 79 74 80 77 68 65 66 82 89 81 75 74 69 57 50 52 62
59 58 58 58 57 57 57 57 57 56 56 55 54 63 67 74 71 73 62 53 57 67 78 77 79 76 76 82 81 81 78 77 80 81 67 66 69 87 90 88 84 74 70 74 62 64 61
58 58 58 58 57 57 57 57 57 56 55 55 51 57 64 79 80 71 59 53 64 77 80 79 70 75 70 78 77 77 77 83 82 86 85 73 63 81 88 87 86 78 79 64 60 50 50
58 58 58 57 57 57 57 57 56 56 55 54 53 59 78 86 81 66 55 59 68 78 80 75 72 72 75 76 79 77 77 85 87 86 87 82 69 75 82 76 73 73 66 66 66 61 54
57 57 57 57 57 57 57 56 56 55 53 56 57 54 80 84 64 64 59 66 66 75 81 79 78 76 74 78 76 78 78 82 92 89 80 84 69 66 72 82 88 81 73 69 57 57 59
57 57 57 57 57 57 57 56 55 54 53 51 49 57 75 78 59 61 67 69 73 73 75 75 75 79 81 76 67 72 78 90 92 88 82 81 74 64 66 72 82 78 78 70 68 64 58
57 57 57 57 57 57 57 57 56 55 54 52 51 52 65 67 69 66 64 66 68 79 77 79 77 80 77 75 73 69 76 86 91 91 82 81 72 64 64 65 74 71 76 76 67 58 59
57 57 57 57 56 57 57 57 56 55 55 52 53 54 63 55 58 60 63 66 65 67 78 78 73 75 74 68 69 70 77 82 88 86 82 84 65 70 73 78 80 79 79 78 69 66 64
56 57 57 56 56 57 57 57 56 55 54 50 46 53 58 55 59 59 59 61 65 69 71 70 71 77 77 70 70 68 74 73 73 81 79 79 63 68 66 80 80 78 83 81 80 78 72
56 56 56 56 56 57 57 57 56 55 53 51 57 58 54 52 55 55 58 62 66 71 74 77 77 77 75 78 81 80 85 81 77 70 74 71 65 61 60 72 73 68 73 79 79 80 76
56 56 56 56 57 57 57 57 57 56 54 51 53 53 48 46 52 55 60 64 65 68 66 77 80 72 82 87 83 81 82 76 79 79 79 69 63 61 58 61 53 69 80 84 82 84 78
56 55 56 56 56 57 57 57 57 56 55 53 56 53 49 42 51 54 60 57 60 66 68 74 80 77 81 80 68 63 64 66 72 77 79 74 66 59 55 56 62 73 78 77 77 72 80
55 55 56 55 56 56 57 57 57 56 55 54 56 59 51 44 48 58 54 56 55 59 62 72 80 79 78 68 64 55 54 60 61 68 72 73 68 63 57 53 55 66 79 86 80 62 79
55 55 55 55 55 56 56 57 57 57 55 54 55 59 53 44 52 55 50 50 58 57 58 64 63 70 75 62 59 58 60 68 62 59 62 60 60 55 56 56 63 74 82 84 63 61 74
55 55 54 55 55 55 56 56 56 56 57 55 55 60 52 48 50 55 56 51 55 55 51 58 60 65 65 59 60 61 61 65 62 63 64 58 56 54 58 56 53 75 77 68 65 68 73
53 53 54 54 55 55 55 56 56 56 56 57 51 60 60 49 51 59 60 62 60 59 55 58 56 59 62 59 62 63 61 62 60 56 68 62 66 63 63 60 67 74 72 71 73 69 69